SXM-8

Last updated on Tue Oct 01 2024 00:02:43 GMT+0000 (Coordinated Universal Time)

1 48838U 21049A 24274.01747366 -.00000214 00000+0 00000+0 0 9996 2 48838 0.0140 207.7041 0005841 191.1775 251.4875 1.00269560 12327
UTC large
Height (km)
Speed (km/s)
/
Latitude / Longitude
Inclination (degrees)
Orbital Period (minutes)
Azimuth
Elevation
Range (km)
Doppler Factor

Next 0 passes for location: London (51.5072 / 0.1276)

Sorry there are no passes over London.